Back to catalog

COSMOS 839 DEB *

AliveLEO
NORAD 21957·DEBRIS·🇷🇺 Russia

Launched Jul 8, 1976 from Plesetsk Cosmodrome

Loading…

Next Passes (next 24 hours)

TLE

StaleSource: Space-Track

Epoch: Sep 7, 2026, 04:26 UTC

1 21957U 76067BV  26250.18478952  .00000148  00000-0  38923-3 0  9990
2 21957  65.4607 216.8147 0731965 308.6601  45.1048 12.65768744607362

Track COSMOS 839 DEB * in real time with AllMySat

Download on the App Store